User: anonymous
Location: Caltech
(34.1382°N, 118.1253°W)
Time: 06:06:12
(UTC-07:00)
Language:

Iridium 15 - Orbit

View from above orbital plane
View from above orbital plane
View from above satellite
View from above satellite

Ground track
Ground track

The orbit data is extracted from the following two-line orbital elements,

1 24869U 97034A   14239.08381137  .00000066  00000-0  16411-4 0   374
2 24869 086.3930 090.3338 0002075 101.7197 061.6877 14.34220937896986
Epoch (UTC): 27 August 2014 02:00:41
Eccentricity: 0.0002075
inclination: 86.3930°
perigee height: 776 km
apogee height: 779 km
right ascension of ascending node: 90.3338°
argument of perigee: 101.7197°
revolutions per day: 14.34220937
mean anomaly at epoch: 61.6877°
orbit number at epoch: 89698

The dashed part of the orbit path shows where the satellite is in the earth's shadow,  

DLR